DW3929 Weather Reports


Display with metric or nautical units.
time (UTC)temp
F
wind
direction
speed
MPH
gust
MPH
rain 1hr
in
rain 24hr
in
rain mn
in
humidity
%
barometer
mb
20260505120322 72 360 6.0 14.0 0.00 0.00 0.00 94 1006.9
20260505115821 72 360 5.0 11.0 0.00 0.00 0.00 94 1007.0
20260505115320 72 360 5.0 11.0 0.00 0.00 0.00 94 1007.0
20260505114820 72 360 5.0 9.0 0.00 0.00 0.00 94 1007.0
20260505114339 72 360 4.0 11.0 0.00 0.00 0.00 94 1007.0
20260505113817 72 360 4.0 11.0 0.00 0.00 0.00 94 1007.0
20260505113316 72 360 5.0 11.0 0.00 0.00 0.00 94 1006.8
20260505112835 72 360 6.0 11.0 0.00 0.00 0.00 94 1006.8
20260505112331 72 360 5.0 11.0 0.00 0.00 0.00 94 1006.8
20260505111831 72 360 5.0 11.0 0.00 0.00 0.00 94 1006.9
20260505111314 71 360 5.0 13.0 0.00 0.00 0.00 94 1006.9
20260505110830 71 360 6.0 13.0 0.00 0.00 0.00 94 1006.9
20260505110331 71 360 5.0 10.0 0.00 0.00 0.00 94 1007.0
20260505101814 71 360 6.0 11.0 0.00 0.00 0.00 94 1007.1
20260505101312 71 360 3.0 11.0 0.00 0.00 0.00 94 1007.0
20260505100812 71 360 7.0 12.0 0.00 0.00 0.00 94 1007.0
20260505100312 71 360 7.0 12.0 0.00 0.00 0.00 94 1007.1
20260505095833 71 360 5.0 12.0 0.00 0.00 0.00 94 1007.1
20260505095328 71 360 4.0 12.0 0.00 0.00 0.00 94 1007.2
20260505094827 71 360 7.0 16.0 0.00 0.00 0.00 94 1007.1
20260505094345 71 360 7.0 16.0 0.00 0.00 0.00 94 1007.2
20260505093820 71 360 5.0 13.0 0.00 0.00 0.00 94 1007.0
20260505093320 71 360 6.0 12.0 0.00 0.00 0.00 94 1007.1
20260505092818 71 360 5.0 13.0 0.00 0.00 0.00 94 1007.3
20260505092339 71 360 4.0 15.0 0.00 0.00 0.00 94 1007.4
20260505091817 71 360 6.0 15.0 0.00 0.00 0.00 94 1007.3
20260505091338 71 360 5.0 11.0 0.00 0.00 0.00 94 1007.3
20260505090818 71 360 6.0 11.0 0.00 0.00 0.00 94 1007.5
20260505090312 71 360 5.0 12.0 0.00 0.00 0.00 94 1007.5
20260505085812 71 360 6.0 14.0 0.00 0.00 0.00 94 1007.2
20260505085331 71 360 9.0 14.0 0.00 0.00 0.00 94 1007.3
20260505084828 71 360 6.0 13.0 0.00 0.00 0.00 93 1007.3
20260505084348 71 360 4.0 13.0 0.00 0.00 0.00 93 1007.5
20260505083845 71 360 5.0 13.0 0.00 0.00 0.00 93 1007.6
20260505083322 71 360 7.0 11.0 0.00 0.00 0.00 93 1007.6
20260505082819 71 360 5.0 13.0 0.00 0.00 0.00 93 1007.7
20260505082317 71 360 6.0 13.0 0.00 0.00 0.00 93 1007.7
20260505081852 71 360 4.0 20.0 0.00 0.00 0.00 93 1007.8
20260505081326 71 360 5.0 20.0 0.00 0.00 0.00 92 1007.9
20260505080825 71 360 7.0 13.0 0.00 0.00 0.00 92 1007.8
20260505080344 71 360 6.0 18.0 0.00 0.00 0.00 92 1007.9
20260505075820 71 360 10.0 18.0 0.00 0.00 0.00 93 1008.0
20260505075339 71 360 7.0 16.0 0.00 0.00 0.00 92 1008.1
20260505074818 71 360 7.0 14.0 0.00 0.00 0.00 93 1008.1
20260505074318 71 360 8.0 15.0 0.00 0.00 0.00 93 1008.2
20260505073816 71 360 8.0 15.0 0.00 0.00 0.00 93 1008.2
20260505073335 71 360 7.0 15.0 0.00 0.00 0.00 93 1008.3
20260505072854 71 360 7.0 16.0 0.00 0.00 0.00 93 1008.2
20260505072329 71 360 7.0 12.0 0.00 0.00 0.00 93 1008.3
20260505071828 71 360 6.0 13.0 0.00 0.00 0.00 92 1008.3
20260505071326 71 360 7.0 13.0 0.00 0.00 0.00 92 1008.3
20260505070825 71 360 6.0 17.0 0.00 0.00 0.00 92 1008.3
20260505070322 71 360 9.0 16.0 0.00 0.00 0.00 92 1008.6
20260505065821 71 360 7.0 14.0 0.00 0.00 0.00 92 1008.5
20260505065321 71 360 5.0 14.0 0.00 0.00 0.00 92 1008.6
20260505064820 71 360 6.0 18.0 0.00 0.00 0.00 92 1008.7
20260505064320 71 360 7.0 15.0 0.00 0.00 0.00 92 1008.9
20260505063839 71 360 7.0 17.0 0.00 0.00 0.00 92 1008.9
20260505063337 71 360 9.0 17.0 0.00 0.00 0.00 92 1008.9
20260505062815 71 360 8.0 16.0 0.00 0.00 0.00 92 1009.0
20260505062313 71 360 7.0 16.0 0.00 0.00 0.00 91 1009.0
20260505061832 71 360 8.0 17.0 0.00 0.00 0.00 91 1008.9
20260505061331 71 360 10.0 17.0 0.00 0.00 0.00 91 1008.9
20260505060830 71 360 7.0 16.0 0.00 0.00 0.00 91 1008.9
20260505060328 71 360 10.0 14.0 0.00 0.00 0.00 91 1009.1
20260505055827 71 360 5.0 17.0 0.00 0.00 0.00 91 1009.0
20260505055328 71 360 7.0 17.0 0.00 0.00 0.00 91 1009.0
20260505054828 71 360 8.0 21.0 0.00 0.00 0.00 91 1008.8
20260505054318 71 360 6.0 21.0 0.00 0.00 0.00 91 1008.8
20260505053853 71 360 9.0 17.0 0.00 0.00 0.00 91 1008.7
20260505053331 71 360 9.0 17.0 0.00 0.00 0.00 90 1008.8
20260505052829 71 360 9.0 17.0 0.00 0.00 0.00 90 1008.7
20260505052348 71 360 8.0 17.0 0.00 0.00 0.00 90 1008.7
20260505051821 71 360 9.0 15.0 0.00 0.00 0.00 90 1008.7
20260505051332 71 360 8.0 16.0 0.00 0.00 0.00 90 1008.7
20260505050829 71 360 11.0 17.0 0.00 0.00 0.00 90 1008.8
20260505050349 72 360 10.0 17.0 0.00 0.00 0.00 89 1008.8
20260505041330 72 360 8.0 16.0 0.00 0.00 0.00 88 1009.2
20260505040830 72 360 8.0 13.0 0.00 0.00 0.00 88 1009.2
20260505040350 72 360 6.0 12.0 0.00 0.00 0.00 88 1009.3
20260505035825 73 360 7.0 12.0 0.00 0.00 0.00 88 1009.2
20260505035317 73 360 7.0 12.0 0.00 0.00 0.00 87 1009.2
20260505034816 73 360 5.0 12.0 0.00 0.00 0.00 87 1009.1
20260505034317 73 360 7.0 14.0 0.00 0.00 0.00 87 1009.1
20260505033837 73 360 8.0 14.0 0.00 0.00 0.00 87 1009.0
20260505033351 73 360 6.0 14.0 0.00 0.00 0.00 87 1009.0
20260505032830 73 360 7.0 14.0 0.00 0.00 0.00 86 1009.0
20260505032325 73 360 6.0 15.0 0.00 0.00 0.00 86 1009.2
20260505031824 73 360 8.0 13.0 0.00 0.00 0.00 86 1009.2
20260505031325 74 360 5.0 11.0 0.00 0.00 0.00 86 1009.3
20260505030823 74 360 6.0 12.0 0.00 0.00 0.00 86 1009.3
20260505030317 74 360 6.0 10.0 0.00 0.00 0.00 85 1009.3
20260505025816 74 360 5.0 12.0 0.00 0.00 0.00 85 1009.2
20260505025316 74 360 6.0 12.0 0.00 0.00 0.00 85 1009.2
20260505024814 74 360 5.0 10.0 0.00 0.00 0.00 85 1009.1
20260505024313 74 360 6.0 10.0 0.00 0.00 0.00 85 1009.0
20260505023812 74 360 4.0 10.0 0.00 0.00 0.00 84 1008.9
20260505023331 74 360 5.0 12.0 0.00 0.00 0.00 84 1008.8
20260505022851 75 360 4.0 12.0 0.00 0.00 0.00 84 1008.8
20260505022330 75 360 4.0 11.0 0.00 0.00 0.00 83 1008.9
20260505021829 75 360 2.0 5.0 0.00 0.00 0.00 82 1008.8
20260505021328 75 360 3.0 9.0 0.00 0.00 0.00 82 1008.8
20260505020847 76 360 6.0 9.0 0.00 0.00 0.00 82 1008.7
20260505020326 76 360 4.0 10.0 0.00 0.00 0.00 81 1008.6
20260505015814 76 360 5.0 10.0 0.00 0.00 0.00 81 1008.5
20260505015352 76 360 4.0 9.0 0.00 0.00 0.00 80 1008.6
20260505014839 76 360 4.0 9.0 0.00 0.00 0.00 80 1008.6
20260505014339 76 360 4.0 10.0 0.00 0.00 0.00 80 1008.5
20260505013816 77 360 5.0 10.0 0.00 0.00 0.00 80 1008.5
20260505013338 77 360 4.0 9.0 0.00 0.00 0.00 79 1008.4
20260505012816 77 360 4.0 11.0 0.00 0.00 0.00 79 1008.4
20260505012316 77 360 6.0 11.0 0.00 0.00 0.00 79 1008.2
20260505011816 77 360 6.0 9.0 0.00 0.00 0.00 79 1008.3
20260505011353 77 360 5.0 9.0 0.00 0.00 0.00 78 1008.3
20260505010832 78 360 7.0 11.0 0.00 0.00 0.00 78 1008.2
20260505010333 78 360 6.0 11.0 0.00 0.00 0.00 78 1008.2
20260505005814 78 360 6.0 12.0 0.00 0.00 0.00 77 1008.2
20260505005314 78 360 8.0 12.0 0.00 0.00 0.00 77 1008.3
20260505004814 78 360 7.0 12.0 0.00 0.00 0.00 76 1008.4
20260505004313 79 360 7.0 18.0 0.00 0.00 0.00 75 1008.4
20260505003831 79 360 9.0 18.0 0.00 0.00 0.00 75 1008.3
20260505003325 79 360 11.0 17.0 0.00 0.00 0.00 74 1008.3
20260505002825 80 360 10.0 20.0 0.00 0.00 0.00 73 1008.2
20260505002319 80 360 6.0 13.0 0.00 0.00 0.00 73 1008.2
20260505001820 80 360 8.0 14.0 0.00 0.00 0.00 72 1008.2
20260505001340 80 360 7.0 14.0 0.00 0.00 0.00 72 1008.4
20260505000818 80 360 8.0 14.0 0.00 0.00 0.00 71 1008.4
20260505000318 80 360 7.0 20.0 0.00 0.00 0.00 71 1008.5
20260504235817 80 360 7.0 20.0 0.00 0.00 0.00 71 1008.5
20260504235318 81 360 6.0 14.0 0.00 0.00 0.00 71 1008.4
20260504234816 81 360 7.0 14.0 0.00 0.00 0.00 70 1008.6
20260504234315 81 360 7.0 12.0 0.00 0.00 0.00 70 1008.6
20260504233813 81 360 6.0 16.0 0.00 0.00 0.00 69 1008.7
20260504233313 81 360 8.0 16.0 0.00 0.00 0.00 68 1008.7
20260504232813 82 360 7.0 19.0 0.00 0.00 0.00 68 1008.7
20260504232331 82 360 9.0 19.0 0.00 0.00 0.00 67 1008.6
20260504231831 83 360 9.0 16.0 0.00 0.00 0.00 66 1008.8
20260504231350 83 360 8.0 18.0 0.00 0.00 0.00 66 1008.9
20260504230824 83 360 10.0 18.0 0.00 0.00 0.00 65 1008.9
20260504225336 84 360 7.0 18.0 0.00 0.00 0.00 64 1009.0
20260504224814 85 360 9.0 18.0 0.00 0.00 0.00 63 1009.2
20260504224313 85 360 7.0 16.0 0.00 0.00 0.00 64 1009.1
20260504223831 84 360 7.0 16.0 0.00 0.00 0.00 64 1009.2
20260504223352 84 360 7.0 21.0 0.00 0.00 0.00 64 1009.2
20260504222849 84 360 8.0 21.0 0.00 0.00 0.00 63 1009.3
20260504222327 84 360 7.0 17.0 0.00 0.00 0.00 64 1009.4
20260504221846 83 360 8.0 17.0 0.00 0.00 0.00 66 1009.4
20260504221340 82 360 8.0 17.0 0.00 0.00 0.00 65 1009.5
20260504220817 83 360 8.0 17.0 0.00 0.00 0.00 65 1009.4
20260504220317 83 360 5.0 19.0 0.00 0.00 0.00 66 1009.4
20260504215837 83 360 9.0 19.0 0.00 0.00 0.00 66 1009.4
20260504213826 82 360 7.0 14.0 0.00 0.00 0.00 66 1009.7
20260504213324 83 360 7.0 17.0 0.00 0.00 0.00 65 1009.7
20260504212824 83 360 11.0 17.0 0.00 0.00 0.00 65 1009.8
20260504212344 84 360 8.0 15.0 0.00 0.00 0.00 64 1009.8
20260504211842 84 360 8.0 15.0 0.00 0.00 0.00 63 1009.9
20260504211319 85 360 5.0 13.0 0.00 0.00 0.00 65 1009.9
20260504210819 84 360 4.0 11.0 0.00 0.00 0.00 63 1010.0
20260504210318 84 360 6.0 20.0 0.00 0.00 0.00 63 1010.0
20260504205818 85 360 9.0 20.0 0.00 0.00 0.00 61 1010.2
20260504205318 85 360 6.0 17.0 0.00 0.00 0.00 62 1010.3
20260504204836 85 360 10.0 16.0 0.00 0.00 0.00 62 1010.4
20260504204313 85 360 3.0 17.0 0.00 0.00 0.00 63 1010.4
20260504203831 85 360 9.0 17.0 0.00 0.00 0.00 62 1010.5
20260504203332 84 360 8.0 17.0 0.00 0.00 0.00 62 1010.7
20260504202831 84 360 9.0 15.0 0.00 0.00 0.00 64 1010.7
20260504202330 85 360 8.0 14.0 0.00 0.00 0.00 62 1010.9
20260504201829 85 360 7.0 17.0 0.00 0.00 0.00 63 1010.9
20260504201328 84 360 9.0 17.0 0.00 0.00 0.00 63 1010.9
20260504200821 83 360 6.0 19.0 0.00 0.00 0.00 66 1011.2
20260504200320 83 360 11.0 19.0 0.00 0.00 0.00 63 1011.3
20260504195820 83 360 4.0 15.0 0.00 0.00 0.00 65 1011.3
20260504195316 84 360 9.0 14.0 0.00 0.00 0.00 64 1011.3
20260504194816 83 360 8.0 16.0 0.00 0.00 0.00 65 1011.4
20260504194336 83 360 5.0 17.0 0.00 0.00 0.00 65 1011.4
20260504193813 83 360 7.0 15.0 0.00 0.00 0.00 63 1011.6
20260504193352 84 360 6.0 15.0 0.00 0.00 0.00 63 1011.7
20260504192823 84 360 8.0 15.0 0.00 0.00 0.00 64 1011.8
20260504192323 83 360 5.0 17.0 0.00 0.00 0.00 65 1011.8
20260504191841 83 360 12.0 17.0 0.00 0.00 0.00 65 1011.8
20260504191319 83 360 7.0 12.0 0.00 0.00 0.00 64 1011.9
20260504190819 84 360 7.0 15.0 0.00 0.00 0.00 63 1011.9
20260504190313 84 360 6.0 15.0 0.00 0.00 0.00 61 1011.8
20260504185832 84 360 5.0 13.0 0.00 0.00 0.00 62 1012.0
20260504185329 84 360 6.0 15.0 0.00 0.00 0.00 61 1012.1
20260504184827 84 360 4.0 17.0 0.00 0.00 0.00 64 1012.1
20260504184327 84 360 7.0 17.0 0.00 0.00 0.00 62 1012.3
20260504183826 84 360 5.0 14.0 0.00 0.00 0.00 63 1012.2
20260504183325 83 360 5.0 16.0 0.00 0.00 0.00 64 1012.4
20260504182825 83 360 6.0 16.0 0.00 0.00 0.00 62 1012.5
20260504182313 83 360 8.0 16.0 0.00 0.00 0.00 64 1012.4
20260504181829 82 360 8.0 18.0 0.00 0.00 0.00 64 1012.5
20260504181328 82 360 10.0 18.0 0.00 0.00 0.00 65 1012.5
20260504180846 83 360 7.0 15.0 0.00 0.00 0.00 66 1012.6
20260504180329 81 360 5.0 11.0 0.00 0.00 0.00 66 1012.8
20260504175819 81 360 6.0 13.0 0.00 0.00 0.00 68 1012.8
20260504175317 81 360 6.0 13.0 0.00 0.00 0.00 67 1013.0
20260504174816 81 360 6.0 13.0 0.00 0.00 0.00 67 1013.3
20260504174314 81 360 5.0 12.0 0.00 0.00 0.00 68 1013.3
20260504173831 80 360 3.0 17.0 0.00 0.00 0.00 68 1013.3
20260504173330 80 360 11.0 17.0 0.00 0.00 0.00 68 1013.4
20260504172829 79 360 4.0 13.0 0.00 0.00 0.00 70 1013.4
20260504172315 80 360 6.0 18.0 0.00 0.00 0.00 68 1013.5
20260504171853 80 360 5.0 18.0 0.00 0.00 0.00 70 1013.4
20260504171331 80 360 8.0 18.0 0.00 0.00 0.00 69 1013.7
20260504170845 79 360 5.0 15.0 0.00 0.00 0.00 71 1013.6
20260504170317 78 360 6.0 15.0 0.00 0.00 0.00 72 1013.8
20260504160327 76 360 6.0 15.0 0.00 0.00 0.00 74 1014.3
20260504150820 74 360 8.0 17.0 0.00 0.00 0.00 74 1014.6
20260504150320 74 360 10.0 18.0 0.00 0.00 0.00 74 1014.5
20260504141313 70 360 4.0 12.0 0.00 0.00 0.00 78 1014.9
20260504140851 70 360 7.0 14.0 0.00 0.00 0.00 78 1014.9
20260504140330 70 360 7.0 14.0 0.00 0.00 0.00 77 1014.8
20260504130815 62 360 3.0 5.0 0.00 0.00 0.00 95 1014.9
20260504130314 61 360 3.0 5.0 0.00 0.00 0.00 96 1015.0